contact:dominique.lefevre@mio.osupytheas.fr, maurice.libes@osupytheas.fr, didier.mallarino@osupytheas.fr
Project:EMSO http://www.emso-fr.org/EMSO-France
Depth: 2436.0 m
Title:EMSO Ligure Ouest : Data MII capteur CSTAR
DateTime,Latitude,Longitude,Instrument_Serial,Reference_Counts,Signal_Counts,Corrected_Signal_raw_counts,Calculated_Beam_c_inverse_meters,Internal_thermistor_counts
DateTime,Latitude,Longitude,Instrument_Serial,Reference_Counts,Signal_Counts,Corrected_Signal_raw_counts,Calculated_Beam_c_inverse_meters,Internal_thermistor_counts
2022-04-06T13:50:07,42.805,6.029,CST-1368DR,4838,5679,12526,0.882,552
2022-04-06T13:53:08,42.805,6.029,CST-1368DR,4839,5680,12526,0.882,551
2022-04-06T13:56:10,42.805,6.029,CST-1368DR,4839,5679,12524,0.883,551
2022-04-06T13:59:11,42.805,6.029,CST-1368DR,4839,5681,12528,0.881,551
2022-04-06T14:02:13,42.805,6.029,CST-1368DR,4839,5681,12528,0.881,551
2022-04-06T14:05:15,42.805,6.029,CST-1368DR,4839,5679,12523,0.883,551
2022-04-06T14:08:16,42.805,6.029,CST-1368DR,4839,5680,12527,0.882,551
2022-04-06T14:11:18,42.805,6.029,CST-1368DR,4838,5680,12528,0.881,551
2022-04-06T14:14:19,42.805,6.029,CST-1368DR,4838,5681,12531,0.880,551
2022-04-06T14:17:21,42.805,6.029,CST-1368DR,4838,5677,12522,0.883,551
2022-04-06T14:20:23,42.805,6.029,CST-1368DR,4838,5677,12522,0.883,551
2022-04-06T14:23:24,42.805,6.029,CST-1368DR,4838,5676,12519,0.884,551
2022-04-06T14:26:26,42.805,6.029,CST-1368DR,4837,5678,12526,0.882,551
2022-04-06T14:29:27,42.805,6.029,CST-1368DR,4837,5678,12527,0.882,551
2022-04-06T14:32:29,42.805,6.029,CST-1368DR,4837,5679,12528,0.881,551
2022-04-06T14:35:30,42.805,6.029,CST-1368DR,4837,5676,12523,0.883,551
2022-04-06T14:38:32,42.805,6.029,CST-1368DR,4836,5678,12530,0.881,551
2022-04-06T14:41:34,42.805,6.029,CST-1368DR,4836,5678,12529,0.881,551
2022-04-06T14:44:35,42.805,6.029,CST-1368DR,4836,5677,12526,0.882,551
2022-04-06T14:47:37,42.805,6.029,CST-1368DR,4836,5678,12530,0.881,551
2022-04-06T14:50:38,42.805,6.029,CST-1368DR,4836,5678,12528,0.881,551
2022-04-06T14:53:40,42.805,6.029,CST-1368DR,4836,5677,12526,0.882,551
2022-04-06T14:56:42,42.805,6.029,CST-1368DR,4835,5675,12524,0.883,551
2022-04-06T14:59:43,42.805,6.029,CST-1368DR,4835,5676,12527,0.882,551
2022-04-06T15:02:45,42.805,6.029,CST-1368DR,4835,5674,12522,0.883,551
2022-04-06T15:05:46,42.805,6.029,CST-1368DR,4835,5674,12523,0.883,551
2022-04-06T15:08:48,42.805,6.029,CST-1368DR,4835,5677,12530,0.881,551
2022-04-06T15:11:49,42.805,6.029,CST-1368DR,4835,5675,12524,0.883,551
2022-04-06T15:14:51,42.805,6.029,CST-1368DR,4834,5676,12529,0.881,551
2022-04-06T15:17:53,42.805,6.029,CST-1368DR,4834,5674,12525,0.882,551
2022-04-06T15:20:54,42.805,6.029,CST-1368DR,4834,5687,12553,0.873,551
2022-04-06T15:23:56,42.805,6.029,CST-1368DR,4834,5682,12543,0.877,551
2022-04-06T15:26:57,42.805,6.029,CST-1368DR,4834,5676,12530,0.881,551
2022-04-06T15:29:59,42.805,6.029,CST-1368DR,4834,5677,12531,0.880,550
2022-04-06T15:33:00,42.805,6.029,CST-1368DR,4834,5680,12539,0.878,551
2022-04-06T15:36:02,42.805,6.029,CST-1368DR,4833,5678,12536,0.879,551
2022-04-06T15:39:04,42.805,6.029,CST-1368DR,4833,5676,12531,0.880,551
2022-04-06T15:42:05,42.805,6.029,CST-1368DR,4833,5674,12528,0.881,551
2022-04-06T15:45:07,42.805,6.029,CST-1368DR,4833,5677,12535,0.879,551
2022-04-06T15:48:08,42.805,6.029,CST-1368DR,4833,5676,12532,0.880,551
2022-04-06T15:51:10,42.805,6.029,CST-1368DR,4833,5677,12534,0.879,551
2022-04-06T15:54:12,42.805,6.029,CST-1368DR,4833,5675,12530,0.881,550
2022-04-06T15:57:13,42.805,6.029,CST-1368DR,4833,5675,12529,0.881,551
2022-04-06T16:00:15,42.805,6.029,CST-1368DR,4832,5681,12545,0.876,551
2022-04-06T16:03:16,42.805,6.029,CST-1368DR,4832,5683,12551,0.874,551
2022-04-06T16:06:18,42.805,6.029,CST-1368DR,4832,5690,12565,0.870,551
2022-04-06T16:09:19,42.805,6.029,CST-1368DR,4832,5686,12556,0.872,551
2022-04-06T16:12:21,42.805,6.029,CST-1368DR,4832,5685,12554,0.873,551
2022-04-06T16:15:23,42.805,6.029,CST-1368DR,4832,5675,12532,0.880,551
2022-04-06T16:18:24,42.805,6.029,CST-1368DR,4832,5682,12548,0.875,551
2022-04-06T16:21:26,42.805,6.029,CST-1368DR,4832,5685,12555,0.873,551
2022-04-06T16:24:27,42.805,6.029,CST-1368DR,4832,5688,12560,0.871,551
2022-04-06T16:27:29,42.805,6.029,CST-1368DR,4831,5688,12564,0.870,551
2022-04-06T16:30:30,42.805,6.029,CST-1368DR,4831,5687,12561,0.871,551
2022-04-06T16:33:32,42.805,6.029,CST-1368DR,4831,5685,12557,0.872,551
2022-04-06T16:36:34,42.805,6.029,CST-1368DR,4831,5673,12531,0.880,551
2022-04-06T16:39:35,42.805,6.029,CST-1368DR,4831,5673,12531,0.880,551
2022-04-06T16:42:37,42.805,6.029,CST-1368DR,4831,5690,12568,0.869,551
2022-04-06T16:45:38,42.805,6.029,CST-1368DR,4831,5684,12554,0.873,551
2022-04-06T16:48:40,42.805,6.029,CST-1368DR,4831,5688,12562,0.870,551
2022-04-06T16:51:42,42.805,6.029,CST-1368DR,4831,5690,12568,0.869,551
2022-04-06T16:54:43,42.805,6.029,CST-1368DR,4830,5683,12554,0.873,551
2022-04-06T16:57:45,42.805,6.029,CST-1368DR,4830,5680,12548,0.875,551
2022-04-06T17:00:46,42.805,6.029,CST-1368DR,4830,5681,12551,0.874,551
2022-04-06T17:03:48,42.805,6.029,CST-1368DR,4830,5679,12546,0.876,551
2022-04-06T17:06:49,42.805,6.029,CST-1368DR,4830,5673,12533,0.880,551
2022-04-06T17:09:51,42.805,6.029,CST-1368DR,4830,5678,12543,0.877,551
2022-04-06T17:12:53,42.805,6.029,CST-1368DR,4830,5675,12538,0.878,551
2022-04-06T17:15:54,42.805,6.029,CST-1368DR,4830,5674,12536,0.879,551
2022-04-06T17:18:56,42.805,6.029,CST-1368DR,4830,5669,12524,0.883,551
2022-04-06T17:21:57,42.805,6.029,CST-1368DR,4830,5678,12543,0.877,551
2022-04-06T17:24:59,42.805,6.029,CST-1368DR,4829,5676,12543,0.877,551
2022-04-06T17:28:00,42.805,6.029,CST-1368DR,4829,5679,12548,0.875,551
2022-04-06T17:31:02,42.805,6.029,CST-1368DR,4829,5681,12552,0.874,551
2022-04-06T17:34:04,42.805,6.029,CST-1368DR,4829,5679,12548,0.875,551
2022-04-06T17:37:05,42.805,6.029,CST-1368DR,4829,5673,12535,0.879,551
2022-04-06T17:40:07,42.805,6.029,CST-1368DR,4829,5683,12556,0.872,551
2022-04-06T17:43:08,42.805,6.029,CST-1368DR,4829,5678,12546,0.876,551
2022-04-06T17:46:10,42.805,6.029,CST-1368DR,4829,5674,12538,0.878,551
2022-04-06T17:49:12,42.805,6.029,CST-1368DR,4829,5675,12540,0.877,551
2022-04-06T17:52:13,42.805,6.029,CST-1368DR,4829,5679,12548,0.875,551
2022-04-06T17:55:15,42.805,6.029,CST-1368DR,4829,5674,12538,0.878,551
2022-04-06T17:58:16,42.805,6.029,CST-1368DR,4828,5672,12535,0.879,551
2022-04-06T18:01:18,42.805,6.029,CST-1368DR,4828,5678,12548,0.875,551
2022-04-06T18:04:19,42.805,6.029,CST-1368DR,4828,5678,12549,0.875,551
2022-04-06T18:07:21,42.805,6.029,CST-1368DR,4828,5670,12532,0.880,551
2022-04-06T18:10:23,42.805,6.029,CST-1368DR,4828,5670,12531,0.880,551
2022-04-06T18:13:24,42.805,6.029,CST-1368DR,4828,5678,12549,0.875,551
2022-04-06T18:16:26,42.805,6.029,CST-1368DR,4828,5677,12546,0.876,551
2022-04-06T18:19:27,42.805,6.029,CST-1368DR,4828,5677,12546,0.876,551
2022-04-06T18:22:29,42.805,6.029,CST-1368DR,4828,5677,12546,0.876,551
2022-04-06T18:25:31,42.805,6.029,CST-1368DR,4828,5670,12532,0.880,551
2022-04-06T18:28:32,42.805,6.029,CST-1368DR,4828,5679,12551,0.874,551
2022-04-06T18:31:34,42.805,6.029,CST-1368DR,4828,5675,12543,0.877,551
2022-04-06T18:34:35,42.805,6.029,CST-1368DR,4828,5681,12556,0.872,551
2022-04-06T18:37:37,42.805,6.029,CST-1368DR,4828,5683,12560,0.871,551
2022-04-06T18:40:38,42.805,6.029,CST-1368DR,4827,5678,12551,0.874,551
2022-04-06T18:43:40,42.805,6.029,CST-1368DR,4827,5684,12565,0.870,551
2022-04-06T18:46:42,42.805,6.029,CST-1368DR,4827,5678,12551,0.874,551
2022-04-06T18:49:43,42.805,6.029,CST-1368DR,4827,5681,12557,0.872,551
2022-04-06T18:52:45,42.805,6.029,CST-1368DR,4827,5684,12565,0.870,551
2022-04-06T18:55:46,42.805,6.029,CST-1368DR,4827,5678,12552,0.874,551
2022-04-06T18:58:48,42.805,6.029,CST-1368DR,4827,5679,12554,0.873,551
2022-04-06T19:01:49,42.805,6.029,CST-1368DR,4827,5678,12552,0.874,551
2022-04-06T19:04:51,42.805,6.029,CST-1368DR,4827,5678,12551,0.874,551
2022-04-06T19:07:53,42.805,6.029,CST-1368DR,4827,5677,12549,0.875,551
2022-04-06T19:10:54,42.805,6.029,CST-1368DR,4827,5672,12539,0.878,551
2022-04-06T19:13:56,42.805,6.029,CST-1368DR,4827,5680,12556,0.872,551
2022-04-06T19:16:57,42.805,6.029,CST-1368DR,4827,5678,12552,0.874,551
2022-04-06T19:19:59,42.805,6.029,CST-1368DR,4827,5675,12545,0.876,551
2022-04-06T19:23:01,42.805,6.029,CST-1368DR,4826,5674,12544,0.876,551
2022-04-06T19:26:02,42.805,6.029,CST-1368DR,4826,5676,12549,0.875,551
2022-04-06T19:29:04,42.805,6.029,CST-1368DR,4826,5677,12552,0.874,551
2022-04-06T19:32:05,42.805,6.029,CST-1368DR,4826,5674,12544,0.876,551
2022-04-06T19:35:07,42.805,6.029,CST-1368DR,4826,5680,12559,0.871,551
2022-04-06T19:38:08,42.805,6.029,CST-1368DR,4826,5685,12569,0.868,551
2022-04-06T19:41:10,42.805,6.029,CST-1368DR,4826,5687,12573,0.867,551
2022-04-06T19:44:12,42.805,6.029,CST-1368DR,4826,5674,12546,0.876,551
2022-04-06T19:47:13,42.805,6.029,CST-1368DR,4826,5674,12546,0.876,551
2022-04-06T19:50:15,42.805,6.029,CST-1368DR,4826,5671,12539,0.878,551
2022-04-06T19:53:16,42.805,6.029,CST-1368DR,4826,5674,12544,0.876,551
2022-04-06T19:56:18,42.805,6.029,CST-1368DR,4826,5677,12551,0.874,551
2022-04-06T19:59:19,42.805,6.029,CST-1368DR,4826,5673,12542,0.877,551
2022-04-06T20:02:21,42.805,6.029,CST-1368DR,4826,5675,12547,0.875,551
2022-04-06T20:05:23,42.805,6.029,CST-1368DR,4826,5671,12538,0.878,551
2022-04-06T20:08:24,42.805,6.029,CST-1368DR,4826,5673,12543,0.877,551
2022-04-06T20:11:26,42.805,6.029,CST-1368DR,4826,5672,12540,0.877,551
2022-04-06T20:14:27,42.805,6.029,CST-1368DR,4826,5675,12547,0.875,551
2022-04-06T20:17:29,42.805,6.029,CST-1368DR,4825,5672,12544,0.876,551
2022-04-06T20:20:30,42.805,6.029,CST-1368DR,4825,5673,12545,0.876,551
2022-04-06T20:23:32,42.805,6.029,CST-1368DR,4825,5673,12546,0.876,551
2022-04-06T20:26:34,42.805,6.029,CST-1368DR,4825,5677,12554,0.873,551
2022-04-06T20:29:35,42.805,6.029,CST-1368DR,4825,5675,12550,0.874,551
2022-04-06T20:32:37,42.805,6.029,CST-1368DR,4825,5680,12561,0.871,551
2022-04-06T20:35:38,42.805,6.029,CST-1368DR,4825,5676,12551,0.874,551
2022-04-06T20:38:40,42.805,6.029,CST-1368DR,4825,5682,12565,0.870,551
2022-04-06T20:41:42,42.805,6.029,CST-1368DR,4825,5681,12563,0.870,551
2022-04-06T20:44:43,42.805,6.029,CST-1368DR,4825,5679,12559,0.871,551
2022-04-06T20:47:45,42.805,6.029,CST-1368DR,4825,5669,12536,0.879,551
2022-04-06T20:50:46,42.805,6.029,CST-1368DR,4825,5658,12513,0.886,551
2022-04-06T20:53:48,42.805,6.029,CST-1368DR,4825,5668,12534,0.879,551
2022-04-06T20:56:49,42.805,6.029,CST-1368DR,4825,5669,12536,0.879,551
2022-04-06T20:59:51,42.805,6.029,CST-1368DR,4825,5676,12551,0.874,551
2022-04-06T21:02:53,42.805,6.029,CST-1368DR,4825,5662,12521,0.884,551
2022-04-06T21:05:54,42.805,6.029,CST-1368DR,4825,5666,12529,0.881,551
2022-04-06T21:08:56,42.805,6.029,CST-1368DR,4825,5668,12533,0.880,551
2022-04-06T21:11:57,42.805,6.029,CST-1368DR,4824,5665,12530,0.881,551
2022-04-06T21:14:59,42.805,6.029,CST-1368DR,4824,5668,12537,0.878,551
2022-04-06T21:18:00,42.805,6.029,CST-1368DR,4824,5670,12541,0.877,551
2022-04-06T21:21:02,42.805,6.029,CST-1368DR,4824,5664,12528,0.881,551
2022-04-06T21:24:04,42.805,6.029,CST-1368DR,4824,5673,12547,0.875,551
2022-04-06T21:27:05,42.805,6.029,CST-1368DR,4824,5675,12552,0.874,551
2022-04-06T21:30:07,42.805,6.029,CST-1368DR,4824,5676,12555,0.873,551
2022-04-06T21:33:08,42.805,6.029,CST-1368DR,4824,5670,12540,0.877,551
2022-04-06T21:36:10,42.805,6.029,CST-1368DR,4824,5672,12546,0.876,551
2022-04-06T21:39:12,42.805,6.029,CST-1368DR,4824,5670,12541,0.877,551
2022-04-06T21:42:13,42.805,6.029,CST-1368DR,4824,5671,12542,0.877,551
2022-04-06T21:45:15,42.805,6.029,CST-1368DR,4824,5671,12543,0.877,551
2022-04-06T21:48:16,42.805,6.029,CST-1368DR,4824,5667,12533,0.880,551
2022-04-06T21:51:18,42.805,6.029,CST-1368DR,4824,5671,12544,0.876,551
2022-04-06T21:54:19,42.805,6.029,CST-1368DR,4824,5665,12531,0.880,551
2022-04-06T21:57:21,42.805,6.029,CST-1368DR,4824,5670,12542,0.877,551
2022-04-06T22:00:23,42.805,6.029,CST-1368DR,4824,5670,12542,0.877,551
2022-04-06T22:03:24,42.805,6.029,CST-1368DR,4824,5666,12533,0.880,551
2022-04-06T22:06:26,42.805,6.029,CST-1368DR,4824,5667,12534,0.879,551
2022-04-06T22:09:27,42.805,6.029,CST-1368DR,4824,5669,12538,0.878,551
2022-04-06T22:12:29,42.805,6.029,CST-1368DR,4824,5672,12546,0.876,551
2022-04-06T22:15:30,42.805,6.029,CST-1368DR,4824,5671,12544,0.876,551
2022-04-06T22:18:32,42.805,6.029,CST-1368DR,4824,5669,12538,0.878,551
2022-04-06T22:21:34,42.805,6.029,CST-1368DR,4823,5669,12541,0.877,551
2022-04-06T22:24:35,42.805,6.029,CST-1368DR,4824,5675,12552,0.874,551
2022-04-06T22:27:37,42.805,6.029,CST-1368DR,4823,5674,12552,0.874,551
2022-04-06T22:30:38,42.805,6.029,CST-1368DR,4824,5676,12555,0.873,551
2022-04-06T22:33:40,42.805,6.029,CST-1368DR,4823,5674,12553,0.873,551
2022-04-06T22:36:42,42.805,6.029,CST-1368DR,4823,5676,12556,0.872,550
2022-04-06T22:39:43,42.805,6.029,CST-1368DR,4823,5679,12564,0.870,551
2022-04-06T22:42:45,42.805,6.029,CST-1368DR,4823,5679,12564,0.870,551
2022-04-06T22:45:46,42.805,6.029,CST-1368DR,4823,5678,12562,0.870,551
2022-04-06T22:48:48,42.805,6.029,CST-1368DR,4823,5682,12570,0.868,551
2022-04-06T22:51:49,42.805,6.029,CST-1368DR,4823,5673,12551,0.874,551
2022-04-06T22:54:51,42.805,6.029,CST-1368DR,4823,5677,12559,0.871,551
2022-04-06T22:57:53,42.805,6.029,CST-1368DR,4823,5679,12562,0.870,551
2022-04-06T23:00:54,42.805,6.029,CST-1368DR,4823,5668,12540,0.877,551
2022-04-06T23:03:56,42.805,6.029,CST-1368DR,4823,5667,12536,0.879,551
2022-04-06T23:06:57,42.805,6.029,CST-1368DR,4823,5678,12561,0.871,551
2022-04-06T23:09:59,42.805,6.029,CST-1368DR,4823,5660,12522,0.883,551
2022-04-06T23:13:00,42.805,6.029,CST-1368DR,4823,5667,12537,0.878,551
2022-04-06T23:16:02,42.805,6.029,CST-1368DR,4823,5665,12531,0.880,551
2022-04-06T23:19:04,42.805,6.029,CST-1368DR,4823,5670,12542,0.877,551
2022-04-06T23:22:05,42.805,6.029,CST-1368DR,4823,5670,12543,0.877,551
2022-04-06T23:25:07,42.805,6.029,CST-1368DR,4823,5668,12539,0.878,551
2022-04-06T23:28:08,42.805,6.029,CST-1368DR,4822,5672,12551,0.874,551
2022-04-06T23:31:10,42.805,6.029,CST-1368DR,4822,5670,12546,0.876,551
2022-04-06T23:34:12,42.805,6.029,CST-1368DR,4822,5673,12553,0.873,551
2022-04-06T23:37:13,42.805,6.029,CST-1368DR,4822,5672,12551,0.874,551
2022-04-06T23:40:15,42.805,6.029,CST-1368DR,4822,5672,12550,0.874,551
2022-04-06T23:43:16,42.805,6.029,CST-1368DR,4822,5674,12554,0.873,551
2022-04-06T23:46:18,42.805,6.029,CST-1368DR,4822,5669,12544,0.876,551
2022-04-06T23:49:19,42.805,6.029,CST-1368DR,4822,5671,12549,0.875,551
2022-04-06T23:52:21,42.805,6.029,CST-1368DR,4822,5671,12548,0.875,551
2022-04-06T23:55:23,42.805,6.029,CST-1368DR,4822,5669,12543,0.877,551
2022-04-06T23:58:24,42.805,6.029,CST-1368DR,4822,5670,12546,0.876,551
